Regional Weather Roundup
Issued by NWS

Home | Current Version | Previous Version | Text Only | Print | Product List | Glossary On
Versions: 1 2 3 4 5 6 7 8 9 10 11 12 13 14 15 16 17 18 19 20 21 22 23 24 25 26 27 28 29 30 31 32 33 34 35 36 37 38 39 40 41 42 43 44 45 46 47 48 49
000
ASUS42 KFFC 240103
RWRGA
WEATHER ROUNDUP FOR GEORGIA
NATIONAL WEATHER SERVICE PEACHTREE CITY GA
900 PM EDT WED JUL 23 2014

NOTE: "FAIR" INDICATES FEW OR NO CLOUDS BELOW 12,000 FEET WITH NO
SIGNIFICANT WEATHER AND/OR OBSTRUCTIONS TO VISIBILITY.

* = USE WITH CAUTION. THE STATIONS MARKED WITH AN ASTERISK MAY NOT
REPORT WEATHER SUCH AS PRECIPITATION, FOG, OR THUNDER AND ARE NOT
QUALITY CONTROLLED BY NWS.

THE REMARK "TC" DENOTES TEMPERATURE READING IN DEGREES CELSIUS.

GAZ001>058-240200-
NORTH GEORGIA

CITY           SKY/WX    TMP DP  RH WIND       PRES   REMARKS
ATLANTA        PTCLDY    80  69  69 CALM      29.99F
ATHENS         MOCLDY    82  72  71 CALM      29.98F
CHAMBLEE       PTCLDY    78  69  73 CALM      30.00F
PEACHTREE CITY CLEAR     80  70  71 CALM      29.99F
ROME           PTCLDY    76  74  93 NE5       29.98F
WEST ATLANTA   CLEAR     81  72  74 CALM      29.99S
GAINESVILLE    MOCLDY    76  70  82 CALM      30.04R
CARTERSVILLE   PTCLDY    78  72  81 CALM      30.00R


CITY           SKY/WX    TMP DP  RH WIND       PRES   REMARKS
DALTON*        PTCLDY    73  73 100 CALM      29.99R
LAWRENCEVILLE* MOCLDY    75  66  73 CALM      30.00F
KENNESAW*      MOCLDY    79  72  78 CALM      30.01S
$$

GAZ059>098-102>109-240200-
CENTRAL GEORGIA

CITY           SKY/WX    TMP DP  RH WIND       PRES   REMARKS
AUGUSTA-BUSH   PTCLDY    82  72  71 NW7       29.97R
AUGUSTA-DANIEL PTCLDY    81  71  71 W5        29.99S
COLUMBUS       CLEAR     84  71  65 W3        29.98R
MACON          CLEAR     79  77  94 CALM      29.98R
ROBINS AFB     CLEAR     79  78  98 CALM      29.97S


CITY           SKY/WX    TMP DP  RH WIND       PRES   REMARKS
LAGRANGE*      CLEAR     85  77  78 CALM      30.00R HX  95
SYLVANIA*      PTCLDY    84  79  84 S3        29.99R HX  96
MILLEDGEVILLE* CLEAR     68  63  83 CALM      29.98R
$$

GAZ099>101-110>166-240200-
SOUTH GEORGIA

CITY           SKY/WX    TMP DP  RH WIND       PRES   REMARKS
SAVANNAH       MOCLDY    83  74  74 S6        29.99R
VALDOSTA       CLEAR     85  71  63 CALM      29.99S HX  90
ALMA           CLEAR     83  69  62 S3        29.97S
ST SIMONS      MOCLDY    83  75  77 S10       30.00R HX  90
FT STEWART     PTCLDY    82  75  79 SE3       29.98R
ALBANY         CLEAR     81  73  76 SW3       30.00S
BRUNSWICK      MOCLDY    86  73  66 CALM      30.00S HX  93


CITY           SKY/WX    TMP DP  RH WIND       PRES   REMARKS
BAINBRIDGE*    CLEAR     81  79  94 CALM      29.99R
MOULTRIE*      CLEAR     81  73  78 W3        30.00S
VIDALIA*         N/A     81  72  74 CALM      29.98S
WAYCROSS*      PTCLDY    88  76  67 S5        29.98R HX  99
DOUGLAS*       CLEAR     84  70  61 SW5       30.00R
$$



USA.gov is the U.S. government's official web portal to all federal, state and local government web resources and services.